Location: Benalto
(52.3088°N, 114.2787°W)
Time: 11:38:42
(UTC+00:00)

N. Korean satellite - Pass Details

Date: 02 December 2021
Orbit: 447 x 490 km, 97.3° (Epoch: 27 January)

Event Time Altitude Azimuth Distance (km) Brightness Sun altitude
Rises 00:43:02 0° 196° (SSW) 2,537 10.8 -10.9°
Reaches altitude 10° 00:45:24 10° 211° (SSW) 1,654 10.1 -11.2°
Maximum altitude 00:48:18 23° 266° (W) 1,050 9.2 -11.7°
Drops below altitude 10° 00:51:12 10° 321° (NW) 1,643 9.5 -12.1°
Sets 00:53:32 0° 336° (NNW) 2,516 10.2 -12.4°
